sat.trackr.live / text

‹ back to catalog

UNKNOWN

NORAD 87293

UNKNOWN UNKNOWN UNKNOWN

§ Identity

Operator
Country
Launch date
Launch site
Launch vehicle
Mass (kg)
RCS (m²)

External: N2YO · Heavens-Above

§ Orbital elements

Epoch: 2026-09-18T00:05:35.512800Z

Period
101.33 min
Inclination
65.8939°
Eccentricity
0.0420664
Mean motion
14.21067979 rev/d
Perigee alt
518.9 km
Apogee alt
1,124.6 km
Semi-major
7,199.9 km
B*
5.2216e-4
RAAN
120.6164°
Arg perigee
209.7498°
Mean anomaly
147.9067°
Rev number
65,364

§ Raw data

UNKNOWN1 87293U          26261.00388325  .00002690  00000+0  52216-3 0  99902 87293  65.8939 120.6164 0420664 209.7498 147.9067 14.21067979653646

JSON: /api/v1/satellites/87293 · /tle

For live sub-satellite position, see the globe view (requires WebGL).

§ Visibility from observer

Set your observer location to see the next 7 days of passes ≥ 10°. The values pass through the URL so the page stays shareable.

No JS? Fill the form by hand. The geolocation button needs JavaScript.